Regional Weather Roundup
Issued by NWS

Home | Current Version | Previous Version | Text Only | Print | Product List | Glossary Off
Versions: 1 2 3 4 5 6 7 8 9 10 11 12 13 14 15 16 17 18 19 20 21 22 23 24 25 26 27 28 29 30 31 32 33 34 35 36 37 38 39 40 41 42 43 44 45 46 47 48 49 50

742
ASUS44 KMEG 210810
RWRTN
TENNESSEE HOURLY STATE WEATHER ROUNDUP
NATIONAL WEATHER SERVICE MEMPHIS TN
300 AM CDT MON AUG 21 2017

TNZ002-004-019-021-049-052-054-088>092-210900-
WEST TENNESSEE

CITY           SKY/WX    TMP DP  RH WIND       PRES   REMARKS
MEMPHIS INTL   CLEAR     76  73  91 CALM      30.09S
NWS MEMPHIS      N/A     75 N/A N/A MISG        N/A
JACKSON        PTCLDY    72  72 100 CALM      30.09S FOG
DYERSBURG      CLEAR     76  75  97 CALM      30.09F
SOMERVILLE     CLEAR     75  73  94 CALM      30.08S
COVINGTON      CLEAR     73  73 100 CALM      30.08S
UNION CITY     CLEAR     68  68 100 S3        30.07F
BOLIVAR        FOG       72  72 100 CALM      30.09S VSB 3/4
PARIS          CLEAR     70  68  94 CALM      30.09F
HUNTINGDON     PTCLDY    70  70 100 CALM      30.09F
LEXINGTON      CLEAR     70  70 100 CALM      30.10S FOG
SELMER         CLEAR     73  72  94 S5        30.10S
SAVANNAH       PTCLDY    70  70 100 CALM      30.09F
$$

TNZ008-025-027-028-033-062-065-066-210900-
NORTH MIDDLE TENNESSEE

CITY           SKY/WX    TMP DP  RH WIND       PRES   REMARKS
NASHVILLE      MOCLDY    74  69  85 CALM      30.13R
PORTLAND       CLEAR     70  66  88 CALM      30.13R
CLARKSVILLE    PTCLDY    69  67  93 NE3       30.12R
SMYRNA         CLEAR     70  69  97 CALM      30.13S
COOKEVILLE       N/A     66  66 100 CALM      30.16R FOG
GALLATIN       CLEAR     70  68  94 CALM      30.15S
CROSSVILLE     CLEAR     66  64  93 CALM      30.22S
$$

TNZ061-075-076-078-094-096-097-210900-
SOUTH MIDDLE TENNESSEE

CITY           SKY/WX    TMP DP  RH WIND       PRES   REMARKS
FAYETTEVILLE   PTCLDY    72  70  94 SE3       30.14F
TULLAHOMA      PTCLDY    70  66  88 CALM      30.17S
WINCHESTER     PTCLDY    70  66  88 CALM      30.16S
MCMINNVILLE    CLOUDY    70  70 100 CALM      30.16F VSB 1/2
COLUMBIA       PTCLDY    68  68 100 CALM      30.11S
SHELBYVILLE    CLEAR     70  70 100 E5        30.13F
$$

TNZ017-018-042-046-047-210900-
NORTHEAST TENNESSEE

CITY           SKY/WX    TMP DP  RH WIND       PRES   REMARKS
TRI CITIES     MOCLDY    67  67 100 CALM      30.21S
ELIZABETHTON   CLOUDY    70  66  88 NE3       30.22S
$$

TNZ012-013-036-069-073-074-210900-
CENTRAL EAST TENNESSEE

CITY           SKY/WX    TMP DP  RH WIND       PRES   REMARKS
KNOXVILLE      CLEAR     70  67  90 E3        30.16S
OAK RIDGE      CLEAR     71  69  93 CALM      30.19R
DOWNTOWN KNOXV CLEAR     70  70 100 CALM      30.16S FOG
GATLINBURG     CLEAR     68  66  94 CALM      30.17S
MORRISTOWN     CLEAR     70  66  88 CALM      30.18S
JACKSBORO      MOCLDY    68  66  94 CALM      30.22R FOG
$$

TNZ083-085-099-210900-
SOUTHEAST TENNESSEE

CITY           SKY/WX    TMP DP  RH WIND       PRES   REMARKS
CHATTANOOGA    CLEAR     73  70  90 CALM      30.16S
DAYTON         CLOUDY    68  68 100 N3        30.15S
$$

SKY/WX REPORTED AS FAIR MEANS FEW OR NO CLOUDS BELOW
12 THOUSAND FEET.





USA.gov is the U.S. government's official web portal to all federal, state and local government web resources and services.